TimeCDT,TemperatureF,Dew PointF,Humidity,Sea Level PressureIn,VisibilityMPH,Wind Direction,Wind SpeedMPH,Gust SpeedMPH,PrecipitationIn,Events,Conditions,WindDirDegrees,DateUTC
12:15 AM,60.8,57.2,88,29.89,1.5,East,6.9,-,N/A,,Clear,80,2012-10-23 05:15:00
12:35 AM,60.8,57.2,88,29.89,1.0,ENE,6.9,-,N/A,,Clear,70,2012-10-23 05:35:00
12:55 AM,60.8,57.2,88,29.89,1.0,ENE,8.1,-,N/A,,Overcast,70,2012-10-23 05:55:00
1:15 AM,60.8,59.0,94,29.89,0.5,East,10.4,-,N/A,,Overcast,80,2012-10-23 06:15:00
1:35 AM,60.8,59.0,94,29.88,1.2,East,9.2,-,N/A,,Mostly Cloudy,80,2012-10-23 06:35:00
1:55 AM,60.8,59.0,94,29.88,1.2,ENE,8.1,-,N/A,,Scattered Clouds,70,2012-10-23 06:55:00
2:15 AM,60.8,59.0,94,29.88,1.2,East,9.2,-,N/A,,Scattered Clouds,80,2012-10-23 07:15:00
2:35 AM,60.8,59.0,94,29.89,1.8,East,8.1,-,N/A,,Clear,80,2012-10-23 07:35:00
2:55 AM,60.8,59.0,94,29.89,2.0,East,6.9,-,N/A,,Clear,90,2012-10-23 07:55:00
3:15 AM,60.8,59.0,94,29.88,2.0,East,10.4,-,N/A,,Clear,100,2012-10-23 08:15:00
3:35 AM,60.8,59.0,94,29.88,2.0,East,9.2,-,N/A,,Clear,90,2012-10-23 08:35:00
3:55 AM,60.8,57.2,88,29.88,2.0,East,8.1,-,N/A,,Clear,100,2012-10-23 08:55:00
4:15 AM,60.8,59.0,94,29.88,2.5,ESE,8.1,-,N/A,,Clear,110,2012-10-23 09:15:00
4:35 AM,60.8,59.0,94,29.88,2.5,East,6.9,-,N/A,,Scattered Clouds,100,2012-10-23 09:35:00
4:55 AM,60.8,57.2,88,29.88,2.0,East,8.1,-,N/A,,Scattered Clouds,100,2012-10-23 09:55:00
5:15 AM,60.8,57.2,88,29.88,1.8,ESE,6.9,-,N/A,,Scattered Clouds,110,2012-10-23 10:15:00
5:35 AM,60.8,57.2,88,29.88,2.5,ESE,9.2,-,N/A,,Partly Cloudy,120,2012-10-23 10:35:00
5:55 AM,60.8,57.2,88,29.87,2.5,SE,6.9,-,N/A,,Clear,130,2012-10-23 10:55:00
6:35 AM,60.8,57.2,88,29.88,2.5,SE,6.9,-,N/A,,Partly Cloudy,130,2012-10-23 11:35:00
7:15 AM,60.8,59.0,94,29.88,3.0,SSE,6.9,-,N/A,,Partly Cloudy,150,2012-10-23 12:15:00
7:35 AM,60.8,57.2,88,29.87,2.5,SSE,5.8,-,N/A,,Scattered Clouds,150,2012-10-23 12:35:00
7:55 AM,60.8,57.2,88,29.87,1.5,SE,6.9,-,N/A,,Mostly Cloudy,130,2012-10-23 12:55:00
8:15 AM,60.8,59.0,94,29.88,1.5,SSE,3.5,-,N/A,,Overcast,150,2012-10-23 13:15:00
8:35 AM,62.6,59.0,88,29.89,1.8,Calm,Calm,-,N/A,,Mostly Cloudy,0,2012-10-23 13:35:00
8:55 AM,62.6,60.8,94,29.89,2.5,SSE,4.6,-,N/A,,Partly Cloudy,160,2012-10-23 13:55:00
9:15 AM,64.4,60.8,88,29.90,3.0,South,4.6,-,N/A,,Clear,180,2012-10-23 14:15:00
9:35 AM,64.4,62.6,94,29.90,4.0,South,5.8,-,N/A,,Clear,170,2012-10-23 14:35:00
9:55 AM,64.4,62.6,94,29.91,4.0,South,6.9,-,N/A,,Mostly Cloudy,190,2012-10-23 14:55:00
10:15 AM,66.2,62.6,88,29.91,9.0,SW,13.8,19.6,N/A,,Overcast,220,2012-10-23 15:15:00
10:55 AM,64.4,62.6,94,29.91,8.0,SW,11.5,-,0.02,,Mostly Cloudy,220,2012-10-23 15:55:00
11:15 AM,64.4,60.8,88,29.91,7.0,South,8.1,-,0.01,,Overcast,190,2012-10-23 16:15:00
11:35 AM,64.4,60.8,88,29.91,5.0,South,6.9,-,0.03,,Mostly Cloudy,190,2012-10-23 16:35:00
11:55 AM,64.4,60.8,88,29.89,10.0,South,8.1,-,0.03,,Scattered Clouds,180,2012-10-23 16:55:00
12:15 PM,66.2,60.8,83,29.89,10.0,South,9.2,-,N/A,,Partly Cloudy,170,2012-10-23 17:15:00
12:35 PM,66.2,60.8,83,29.88,10.0,South,9.2,-,N/A,,Partly Cloudy,170,2012-10-23 17:35:00
12:55 PM,66.2,60.8,83,29.88,10.0,South,10.4,-,N/A,,Scattered Clouds,180,2012-10-23 17:55:00
1:15 PM,66.2,60.8,83,29.87,10.0,South,11.5,-,N/A,,Scattered Clouds,190,2012-10-23 18:15:00
1:35 PM,69.8,62.6,78,29.87,10.0,South,12.7,-,N/A,,Scattered Clouds,190,2012-10-23 18:35:00
1:55 PM,68.0,62.6,83,29.86,10.0,South,10.4,-,N/A,,Mostly Cloudy,180,2012-10-23 18:55:00
2:15 PM,69.8,62.6,78,29.85,10.0,South,12.7,-,N/A,,Mostly Cloudy,180,2012-10-23 19:15:00
2:55 PM,69.8,62.6,78,29.84,10.0,South,9.2,-,N/A,,Overcast,170,2012-10-23 19:55:00
3:15 PM,71.6,64.4,78,29.83,10.0,South,10.4,-,N/A,,Overcast,170,2012-10-23 20:15:00
3:35 PM,71.6,62.6,73,29.83,10.0,South,13.8,18.4,N/A,,Mostly Cloudy,170,2012-10-23 20:35:00
3:55 PM,71.6,62.6,73,29.83,10.0,South,11.5,-,N/A,,Overcast,170,2012-10-23 20:55:00
4:15 PM,71.6,62.6,73,29.83,10.0,SSE,13.8,-,N/A,,Mostly Cloudy,160,2012-10-23 21:15:00
4:35 PM,71.6,62.6,73,29.83,10.0,South,12.7,-,N/A,,Mostly Cloudy,170,2012-10-23 21:35:00
4:55 PM,71.6,60.8,69,29.83,10.0,South,9.2,-,N/A,,Overcast,170,2012-10-23 21:55:00
5:15 PM,71.6,60.8,69,29.83,10.0,SSE,10.4,-,N/A,,Mostly Cloudy,160,2012-10-23 22:15:00
5:35 PM,69.8,60.8,73,29.83,10.0,South,10.4,-,N/A,,Mostly Cloudy,170,2012-10-23 22:35:00
5:55 PM,69.8,60.8,73,29.84,10.0,SSE,9.2,-,N/A,,Overcast,160,2012-10-23 22:55:00
6:15 PM,69.8,60.8,73,29.84,10.0,SSE,10.4,-,N/A,,Overcast,160,2012-10-23 23:15:00
6:35 PM,69.8,60.8,73,29.85,10.0,SSE,10.4,-,N/A,,Overcast,160,2012-10-23 23:35:00
6:55 PM,68.0,60.8,78,29.85,10.0,SSE,9.2,-,N/A,,Mostly Cloudy,150,2012-10-23 23:55:00
7:15 PM,68.0,60.8,78,29.86,10.0,SSE,11.5,-,N/A,,Mostly Cloudy,150,2012-10-24 00:15:00
7:35 PM,66.2,60.8,83,29.86,10.0,SSE,11.5,-,N/A,,Mostly Cloudy,160,2012-10-24 00:35:00
7:55 PM,66.2,60.8,83,29.86,10.0,SSE,12.7,-,N/A,,Overcast,160,2012-10-24 00:55:00
8:15 PM,66.2,60.8,83,29.86,10.0,SSE,10.4,-,N/A,,Overcast,160,2012-10-24 01:15:00
8:35 PM,66.2,60.8,83,29.87,10.0,South,11.5,-,N/A,,Overcast,170,2012-10-24 01:35:00
8:55 PM,66.2,60.8,83,29.88,10.0,South,8.1,-,N/A,,Overcast,170,2012-10-24 01:55:00
9:15 PM,66.2,60.8,83,29.88,10.0,South,10.4,-,N/A,,Overcast,170,2012-10-24 02:15:00
9:35 PM,66.2,60.8,83,29.88,10.0,SSE,9.2,-,N/A,,Mostly Cloudy,160,2012-10-24 02:35:00
9:55 PM,66.2,60.8,83,29.88,10.0,SSE,10.4,-,N/A,,Overcast,160,2012-10-24 02:55:00
10:15 PM,66.2,60.8,83,29.88,10.0,South,9.2,-,N/A,,Mostly Cloudy,170,2012-10-24 03:15:00
10:35 PM,64.4,60.8,88,29.89,10.0,South,9.2,-,N/A,,Scattered Clouds,170,2012-10-24 03:35:00
10:55 PM,64.4,60.8,88,29.88,10.0,South,10.4,-,N/A,,Scattered Clouds,170,2012-10-24 03:55:00
11:15 PM,64.4,60.8,88,29.88,10.0,South,9.2,-,N/A,,Scattered Clouds,170,2012-10-24 04:15:00
11:35 PM,64.4,60.8,88,29.88,10.0,South,8.1,-,N/A,,Clear,180,2012-10-24 04:35:00
11:55 PM,64.4,60.8,88,29.88,10.0,South,9.2,-,N/A,,Partly Cloudy,170,2012-10-24 04:55:00